| time (UTC) | temp C | wind direction | speed KPH | gust KPH | rain 1hr cm | rain 24hr cm | rain mn cm | humidity % | barometer mb |
| 20260505181223 | 13 | 262 | 0.0 | 1.6 | 0.00 | 1.40 | 0.28 | 77 | 1007.7 |
| 20260505180722 | 13 | 262 | 0.0 | 1.6 | 0.00 | 1.40 | 0.28 | 76 | 1007.7 |
| 20260505180240 | 13 | 262 | 0.0 | 1.6 | 0.00 | 1.40 | 0.28 | 75 | 1007.6 |
| 20260505175732 | 13 | 262 | 0.0 | 6.4 | 0.00 | 1.40 | 0.28 | 75 | 1007.5 |
| 20260505175228 | 13 | 262 | 1.6 | 6.4 | 0.00 | 1.40 | 0.28 | 74 | 1007.6 |
| 20260505174755 | 13 | 259 | 0.0 | 6.4 | 0.00 | 1.40 | 0.28 | 74 | 1007.5 |
| 20260505174300 | 13 | 264 | 1.6 | 12.9 | 0.00 | 1.40 | 0.28 | 74 | 1007.5 |
| 20260505173739 | 14 | 268 | 6.4 | 12.9 | 0.00 | 1.40 | 0.28 | 74 | 1007.6 |
| 20260505173301 | 14 | 266 | 6.4 | 11.3 | 0.00 | 1.40 | 0.28 | 75 | 1007.5 |
| 20260505172739 | 15 | 248 | 0.0 | 3.2 | 0.00 | 1.40 | 0.28 | 76 | 1007.5 |
| 20260505172244 | 15 | 263 | 0.0 | 3.2 | 0.00 | 1.40 | 0.28 | 76 | 1007.5 |
| 20260505171743 | 15 | 252 | 0.0 | 3.2 | 0.00 | 1.40 | 0.28 | 75 | 1007.5 |
| 20260505171247 | 15 | 262 | 0.0 | 3.2 | 0.00 | 1.40 | 0.28 | 75 | 1007.7 |
| 20260505170746 | 16 | 250 | 0.0 | 0.0 | 0.00 | 1.40 | 0.28 | 76 | 1007.6 |
| 20260505170243 | 15 | 236 | 0.0 | 3.2 | 0.00 | 1.40 | 0.28 | 77 | 1007.7 |
| 20260505165728 | 15 | 255 | 0.0 | 3.2 | 0.00 | 1.40 | 0.28 | 78 | 1007.7 |
| 20260505165227 | 15 | 224 | 1.6 | 4.8 | 0.00 | 1.40 | 0.28 | 79 | 1007.8 |
| 20260505164733 | 15 | 246 | 3.2 | 9.7 | 0.00 | 1.40 | 0.28 | 78 | 1007.9 |
| 20260505164300 | 15 | 244 | 3.2 | 14.5 | 0.00 | 1.40 | 0.28 | 78 | 1007.8 |
| 20260505163738 | 15 | 234 | 6.4 | 14.5 | 0.00 | 1.40 | 0.28 | 77 | 1007.9 |
| 20260505163238 | 15 | 221 | 6.4 | 12.9 | 0.00 | 1.40 | 0.28 | 77 | 1007.8 |
| 20260505162741 | 15 | 212 | 8.0 | 14.5 | 0.00 | 1.40 | 0.28 | 76 | 1007.8 |
| 20260505162240 | 15 | 187 | 9.7 | 16.1 | 0.00 | 1.40 | 0.28 | 76 | 1008.0 |
| 20260505161807 | 15 | 224 | 9.7 | 17.7 | 0.00 | 1.40 | 0.28 | 75 | 1007.9 |
| 20260505161225 | 15 | 226 | 6.4 | 17.7 | 0.00 | 1.40 | 0.28 | 76 | 1007.8 |
| 20260505160724 | 15 | 204 | 9.7 | 20.9 | 0.00 | 1.40 | 0.28 | 76 | 1007.7 |
| 20260505160242 | 15 | 191 | 9.7 | 20.9 | 0.00 | 1.60 | 0.28 | 75 | 1007.6 |
| 20260505153242 | 15 | 244 | 11.3 | 22.5 | 0.00 | 1.60 | 0.28 | 75 | 1007.7 |
| 20260505152721 | 15 | 251 | 12.9 | 22.5 | 0.00 | 1.60 | 0.28 | 75 | 1007.7 |
| 20260505152240 | 15 | 258 | 16.1 | 22.5 | 0.00 | 1.60 | 0.28 | 74 | 1007.6 |
| 20260505151746 | 15 | 217 | 12.9 | 19.3 | 0.00 | 1.60 | 0.28 | 75 | 1007.5 |
| 20260505151246 | 15 | 216 | 11.3 | 19.3 | 0.00 | 1.60 | 0.28 | 76 | 1007.4 |
| 20260505150725 | 15 | 250 | 9.7 | 20.9 | 0.00 | 1.60 | 0.28 | 75 | 1007.5 |
| 20260505150242 | 15 | 183 | 8.0 | 20.9 | 0.00 | 1.80 | 0.28 | 77 | 1007.5 |
| 20260505140246 | 13 | 240 | 9.7 | 14.5 | 0.00 | 1.80 | 0.28 | 81 | 1007.6 |
| 20260505130302 | 15 | 236 | 8.0 | 16.1 | 0.00 | 1.80 | 0.28 | 76 | 1007.9 |
| 20260505124737 | 16 | 244 | 9.7 | 14.5 | 0.00 | 1.80 | 0.28 | 75 | 1007.8 |
| 20260505124237 | 16 | 177 | 6.4 | 14.5 | 0.00 | 1.80 | 0.28 | 74 | 1007.9 |
| 20260505123735 | 16 | 246 | 9.7 | 12.9 | 0.00 | 1.80 | 0.28 | 76 | 1007.7 |
| 20260505123242 | 16 | 254 | 4.8 | 12.9 | 0.00 | 1.80 | 0.28 | 79 | 1007.7 |
| 20260505122721 | 16 | 215 | 6.4 | 12.9 | 0.00 | 1.80 | 0.28 | 76 | 1007.7 |
| 20260505122248 | 16 | 186 | 4.8 | 12.9 | 0.00 | 1.80 | 0.28 | 77 | 1007.8 |
| 20260505121748 | 16 | 240 | 4.8 | 11.3 | 0.00 | 1.80 | 0.28 | 80 | 1007.8 |
| 20260505121225 | 15 | 240 | 3.2 | 11.3 | 0.00 | 1.80 | 0.28 | 81 | 1007.8 |
| 20260505120732 | 15 | 226 | 8.0 | 12.9 | 0.00 | 1.80 | 0.28 | 82 | 1007.8 |
| 20260505120242 | 15 | 239 | 6.4 | 12.9 | 0.00 | 1.80 | 0.28 | 82 | 1007.8 |
| 20260505115735 | 15 | 218 | 3.2 | 9.7 | 0.00 | 1.80 | 0.28 | 81 | 1007.8 |
| 20260505115234 | 15 | 221 | 4.8 | 11.3 | 0.00 | 1.80 | 0.28 | 81 | 1007.8 |
| 20260505114734 | 15 | 200 | 3.2 | 9.7 | 0.00 | 1.80 | 0.28 | 80 | 1007.8 |
| 20260505114240 | 15 | 246 | 4.8 | 9.7 | 0.00 | 1.80 | 0.28 | 81 | 1007.8 |
| 20260505113739 | 15 | 234 | 4.8 | 8.0 | 0.00 | 1.80 | 0.28 | 82 | 1007.8 |
| 20260505113238 | 15 | 248 | 3.2 | 8.0 | 0.00 | 1.80 | 0.28 | 81 | 1007.9 |
| 20260505112745 | 15 | 217 | 4.8 | 11.3 | 0.00 | 1.80 | 0.28 | 83 | 1007.9 |
| 20260505112223 | 15 | 256 | 8.0 | 11.3 | 0.00 | 1.80 | 0.28 | 82 | 1007.9 |
| 20260505111724 | 15 | 224 | 3.2 | 9.7 | 0.00 | 1.80 | 0.28 | 82 | 1007.9 |
| 20260505111240 | 15 | 181 | 4.8 | 11.3 | 0.00 | 1.80 | 0.28 | 84 | 1007.9 |
| 20260505110747 | 14 | 238 | 6.4 | 11.3 | 0.00 | 1.80 | 0.28 | 83 | 1007.9 |
| 20260505110234 | 14 | 225 | 3.2 | 9.7 | 0.00 | 1.80 | 0.28 | 84 | 1007.9 |
| 20260505101731 | 13 | 197 | 0.0 | 0.0 | 0.10 | 1.80 | 0.28 | 87 | 1008.0 |
| 20260505101229 | 13 | 166 | 0.0 | 0.0 | 0.10 | 1.80 | 0.28 | 88 | 1008.1 |
| 20260505100735 | 14 | 162 | 0.0 | 0.0 | 0.10 | 1.80 | 0.28 | 87 | 1008.0 |
| 20260505100254 | 13 | 192 | 0.0 | 0.0 | 0.10 | 1.80 | 0.28 | 89 | 1007.9 |
| 20260505095738 | 13 | 193 | 0.0 | 0.0 | 0.10 | 1.80 | 0.28 | 90 | 1008.1 |
| 20260505095245 | 13 | 193 | 0.0 | 0.0 | 0.10 | 1.80 | 0.28 | 90 | 1008.0 |
| 20260505094723 | 13 | 193 | 0.0 | 0.0 | 0.00 | 1.70 | 0.25 | 90 | 1008.1 |
| 20260505094229 | 12 | 193 | 0.0 | 0.0 | 0.00 | 1.70 | 0.25 | 89 | 1008.0 |
| 20260505093727 | 12 | 192 | 0.0 | 0.0 | 0.00 | 1.70 | 0.25 | 89 | 1008.2 |
| 20260505093254 | 12 | 192 | 0.0 | 0.0 | 0.00 | 1.70 | 0.25 | 89 | 1008.0 |
| 20260505092732 | 12 | 192 | 0.0 | 0.0 | 0.00 | 1.70 | 0.25 | 89 | 1008.0 |
| 20260505092238 | 12 | 185 | 0.0 | 0.0 | 0.00 | 1.70 | 0.25 | 89 | 1008.1 |
| 20260505091738 | 12 | 172 | 0.0 | 0.0 | 0.00 | 1.70 | 0.25 | 90 | 1008.0 |
| 20260505091237 | 12 | 172 | 0.0 | 0.0 | 0.00 | 1.70 | 0.25 | 90 | 1008.0 |
| 20260505090725 | 12 | 169 | 0.0 | 0.0 | 0.00 | 1.70 | 0.25 | 90 | 1007.9 |
| 20260505090251 | 12 | 169 | 0.0 | 0.0 | 0.00 | 1.70 | 0.25 | 89 | 1007.9 |
| 20260505085744 | 12 | 169 | 0.0 | 0.0 | 0.00 | 1.70 | 0.25 | 90 | 1008.0 |
| 20260505085223 | 12 | 169 | 0.0 | 0.0 | 0.00 | 1.70 | 0.25 | 90 | 1008.0 |
| 20260505084723 | 12 | 169 | 0.0 | 0.0 | 0.00 | 1.70 | 0.25 | 91 | 1008.0 |
| 20260505084249 | 12 | 167 | 0.0 | 0.0 | 0.00 | 1.70 | 0.25 | 91 | 1007.9 |
| 20260505083728 | 12 | 168 | 0.0 | 0.0 | 0.00 | 1.70 | 0.25 | 91 | 1007.9 |
| 20260505083233 | 12 | 167 | 0.0 | 0.0 | 0.00 | 1.70 | 0.25 | 91 | 1007.9 |
| 20260505082732 | 12 | 166 | 0.0 | 0.0 | 0.00 | 1.70 | 0.25 | 90 | 1008.0 |
| 20260505082231 | 12 | 163 | 0.0 | 0.0 | 0.00 | 1.70 | 0.25 | 90 | 1008.0 |
| 20260505081738 | 12 | 169 | 0.0 | 0.0 | 0.00 | 1.70 | 0.25 | 91 | 1007.9 |
| 20260505081237 | 12 | 169 | 0.0 | 0.0 | 0.00 | 1.70 | 0.25 | 91 | 1008.0 |
| 20260505080736 | 12 | 166 | 0.0 | 0.0 | 0.00 | 1.70 | 0.25 | 91 | 1008.0 |
| 20260505080234 | 12 | 199 | 0.0 | 0.0 | 0.00 | 1.70 | 0.25 | 91 | 1008.1 |
| 20260505075806 | 12 | 199 | 0.0 | 0.0 | 0.00 | 1.70 | 0.25 | 91 | 1008.1 |
| 20260505075224 | 12 | 199 | 0.0 | 0.0 | 0.10 | 1.70 | 0.25 | 90 | 1008.2 |
| 20260505074744 | 12 | 199 | 0.0 | 0.0 | 0.10 | 1.70 | 0.25 | 91 | 1008.2 |
| 20260505074229 | 12 | 199 | 0.0 | 0.0 | 0.20 | 1.70 | 0.25 | 91 | 1008.3 |
| 20260505073757 | 12 | 250 | 0.0 | 0.0 | 0.20 | 1.70 | 0.25 | 92 | 1008.3 |
| 20260505073235 | 12 | 242 | 0.0 | 0.0 | 0.30 | 1.70 | 0.25 | 92 | 1008.4 |
| 20260505072733 | 12 | 223 | 0.0 | 0.0 | 0.41 | 1.70 | 0.25 | 92 | 1008.4 |
| 20260505072301 | 12 | 195 | 0.0 | 0.0 | 0.51 | 1.70 | 0.25 | 93 | 1008.6 |
| 20260505071739 | 11 | 257 | 0.0 | 0.0 | 0.51 | 1.70 | 0.25 | 93 | 1008.5 |
| 20260505071245 | 11 | 257 | 0.0 | 0.0 | 0.61 | 1.70 | 0.25 | 93 | 1008.6 |
| 20260505070723 | 11 | 245 | 0.0 | 0.0 | 0.61 | 1.70 | 0.25 | 93 | 1008.6 |
| 20260505070240 | 11 | 244 | 0.0 | 0.0 | 0.71 | 1.70 | 0.25 | 94 | 1008.7 |
| 20260505065727 | 11 | 229 | 0.0 | 0.0 | 0.79 | 1.70 | 0.25 | 94 | 1008.7 |
| 20260505065253 | 11 | 229 | 0.0 | 0.0 | 0.71 | 1.60 | 0.23 | 94 | 1008.6 |
| 20260505064740 | 11 | 229 | 0.0 | 0.0 | 0.71 | 1.60 | 0.23 | 94 | 1008.7 |
| 20260505064238 | 11 | 229 | 0.0 | 0.0 | 0.71 | 1.50 | 0.23 | 94 | 1008.7 |
| 20260505063805 | 11 | 229 | 0.0 | 0.0 | 0.79 | 1.50 | 0.23 | 94 | 1008.9 |
| 20260505063223 | 11 | 229 | 0.0 | 0.0 | 0.71 | 1.40 | 0.20 | 94 | 1009.0 |
| 20260505062722 | 11 | 217 | 0.0 | 0.0 | 0.61 | 1.30 | 0.18 | 94 | 1009.1 |
| 20260505062221 | 11 | 234 | 0.0 | 0.0 | 0.61 | 1.19 | 0.15 | 94 | 1009.2 |
| 20260505061728 | 11 | 239 | 0.0 | 0.0 | 0.51 | 1.09 | 0.15 | 94 | 1009.3 |
| 20260505061225 | 11 | 254 | 0.0 | 0.0 | 0.51 | 1.09 | 0.15 | 94 | 1009.4 |
| 20260505060725 | 10 | 236 | 0.0 | 0.0 | 0.41 | 0.99 | 0.13 | 94 | 1009.6 |
| 20260505060241 | 10 | 233 | 0.0 | 0.0 | 0.41 | 0.99 | 0.13 | 94 | 1009.5 |
| 20260505055727 | 10 | 231 | 0.0 | 0.0 | 0.30 | 0.89 | 0.10 | 94 | 1009.4 |
| 20260505055230 | 10 | 244 | 0.0 | 0.0 | 0.30 | 0.89 | 0.10 | 94 | 1009.5 |
| 20260505054751 | 10 | 230 | 0.0 | 0.0 | 0.30 | 0.89 | 0.10 | 94 | 1009.4 |
| 20260505054236 | 10 | 245 | 0.0 | 0.0 | 0.20 | 0.79 | 0.08 | 94 | 1009.4 |
| 20260505053736 | 10 | 231 | 0.0 | 0.0 | 0.10 | 0.71 | 0.05 | 94 | 1009.3 |
| 20260505053242 | 10 | 228 | 0.0 | 0.0 | 0.10 | 0.71 | 0.05 | 94 | 1009.4 |
| 20260505052722 | 10 | 207 | 0.0 | 0.0 | 0.10 | 0.71 | 0.05 | 94 | 1009.4 |
| 20260505052221 | 10 | 233 | 0.0 | 0.0 | 0.00 | 0.61 | 0.05 | 94 | 1009.4 |
| 20260505051747 | 10 | 240 | 0.0 | 0.0 | 0.00 | 0.61 | 0.05 | 95 | 1009.5 |
| 20260505051226 | 10 | 1 | 0.0 | 0.0 | 0.00 | 0.61 | 0.05 | 94 | 1009.4 |
| 20260505050726 | 10 | 1 | 0.0 | 0.0 | 0.00 | 0.61 | 0.05 | 95 | 1009.5 |
| 20260505050243 | 10 | 1 | 0.0 | 0.0 | 0.10 | 0.61 | 0.05 | 95 | 1009.5 |
| 20260505041745 | 10 | 251 | 0.0 | 0.0 | 0.10 | 0.61 | 0.05 | 95 | 1009.2 |
| 20260505041243 | 10 | 251 | 0.0 | 0.0 | 0.10 | 0.61 | 0.05 | 95 | 1009.1 |
| 20260505040728 | 10 | 251 | 0.0 | 0.0 | 0.10 | 0.61 | 0.05 | 95 | 1009.2 |
| 20260505040239 | 10 | 250 | 0.0 | 0.0 | 0.10 | 0.51 | 0.03 | 95 | 1009.2 |
| 20260505035753 | 10 | 250 | 0.0 | 0.0 | 0.10 | 0.51 | 0.03 | 95 | 1009.3 |
| 20260505035231 | 10 | 250 | 0.0 | 0.0 | 0.10 | 0.51 | 0.03 | 95 | 1009.2 |
| 20260505034736 | 10 | 251 | 0.0 | 0.0 | 0.10 | 0.51 | 0.03 | 95 | 1009.2 |
| 20260505034304 | 10 | 251 | 0.0 | 0.0 | 0.10 | 0.51 | 0.03 | 94 | 1009.4 |
| 20260505033722 | 10 | 251 | 0.0 | 0.0 | 0.10 | 0.51 | 0.03 | 94 | 1009.2 |
| 20260505033240 | 10 | 251 | 0.0 | 0.0 | 0.10 | 0.51 | 0.03 | 94 | 1009.2 |
| 20260505032747 | 10 | 251 | 0.0 | 0.0 | 0.10 | 0.51 | 0.03 | 94 | 1009.3 |
| 20260505032226 | 10 | 250 | 0.0 | 0.0 | 0.10 | 0.51 | 0.03 | 94 | 1009.2 |
| 20260505031724 | 10 | 251 | 0.0 | 0.0 | 0.10 | 0.51 | 0.03 | 94 | 1009.3 |
| 20260505031229 | 10 | 251 | 0.0 | 0.0 | 0.10 | 0.51 | 0.03 | 94 | 1009.4 |
| 20260505030748 | 10 | 251 | 0.0 | 0.0 | 0.00 | 0.41 | 0.00 | 94 | 1009.4 |
| 20260505030244 | 10 | 250 | 0.0 | 0.0 | 0.00 | 0.41 | 0.00 | 95 | 1009.5 |
| 20260505025738 | 9 | 251 | 0.0 | 0.0 | 0.00 | 0.41 | 0.00 | 94 | 1009.6 |
| 20260505025237 | 9 | 250 | 0.0 | 0.0 | 0.00 | 0.41 | 0.00 | 94 | 1009.7 |
| 20260505024736 | 9 | 251 | 0.0 | 0.0 | 0.00 | 0.41 | 0.00 | 94 | 1009.8 |
| 20260505024243 | 10 | 251 | 0.0 | 0.0 | 0.00 | 0.41 | 0.00 | 95 | 1009.8 |
| 20260505023722 | 9 | 250 | 0.0 | 0.0 | 0.00 | 0.41 | 0.00 | 95 | 1009.9 |
| 20260505023240 | 9 | 250 | 0.0 | 0.0 | 0.00 | 0.41 | 0.00 | 94 | 1009.9 |
| 20260505022746 | 9 | 250 | 0.0 | 0.0 | 0.00 | 0.41 | 0.00 | 94 | 1009.8 |
| 20260505022224 | 9 | 251 | 0.0 | 0.0 | 0.00 | 0.41 | 0.00 | 94 | 1009.9 |
| 20260505021723 | 9 | 251 | 0.0 | 0.0 | 0.00 | 0.41 | 0.00 | 94 | 1009.8 |
| 20260505021226 | 9 | 251 | 0.0 | 0.0 | 0.00 | 0.41 | 0.00 | 94 | 1009.9 |
| 20260505020725 | 9 | 251 | 0.0 | 0.0 | 0.00 | 0.41 | 0.00 | 94 | 1009.9 |
| 20260505020259 | 9 | 251 | 0.0 | 0.0 | 0.00 | 0.41 | 0.00 | 94 | 1010.0 |
| 20260505015724 | 9 | 251 | 0.0 | 0.0 | 0.00 | 0.41 | 0.00 | 94 | 1009.9 |
| 20260505015226 | 9 | 251 | 0.0 | 0.0 | 0.00 | 0.41 | 0.00 | 94 | 1009.9 |
| 20260505014723 | 9 | 250 | 0.0 | 0.0 | 0.00 | 0.41 | 0.00 | 94 | 1009.9 |
| 20260505014226 | 9 | 251 | 0.0 | 0.0 | 0.00 | 0.41 | 0.00 | 94 | 1009.9 |
| 20260505013726 | 9 | 250 | 0.0 | 0.0 | 0.00 | 0.41 | 0.00 | 94 | 1009.9 |
| 20260505013246 | 9 | 251 | 0.0 | 0.0 | 0.00 | 0.41 | 0.00 | 94 | 1009.8 |
| 20260505012725 | 9 | 251 | 0.0 | 0.0 | 0.00 | 0.41 | 0.00 | 94 | 1009.9 |
| 20260505012224 | 9 | 251 | 0.0 | 0.0 | 0.00 | 0.41 | 0.00 | 94 | 1009.9 |
| 20260505011731 | 9 | 250 | 0.0 | 0.0 | 0.00 | 0.41 | 0.00 | 94 | 1009.8 |
| 20260505011250 | 9 | 251 | 0.0 | 0.0 | 0.00 | 0.41 | 0.00 | 94 | 1010.0 |
| 20260505010757 | 9 | 250 | 0.0 | 0.0 | 0.00 | 0.41 | 0.00 | 94 | 1010.0 |
| 20260505010253 | 10 | 250 | 0.0 | 0.0 | 0.00 | 0.41 | 0.00 | 94 | 1010.1 |
| 20260505005738 | 10 | 251 | 0.0 | 0.0 | 0.00 | 0.41 | 0.00 | 94 | 1010.2 |
| 20260505005255 | 10 | 250 | 0.0 | 0.0 | 0.00 | 0.41 | 0.00 | 94 | 1010.3 |
| 20260505004733 | 9 | 251 | 0.0 | 0.0 | 0.00 | 0.41 | 0.00 | 94 | 1010.3 |
| 20260505004236 | 9 | 250 | 0.0 | 0.0 | 0.00 | 0.41 | 0.00 | 94 | 1010.3 |
| 20260505003735 | 10 | 250 | 0.0 | 0.0 | 0.00 | 0.41 | 0.00 | 94 | 1010.4 |
| 20260505003226 | 10 | 250 | 0.0 | 0.0 | 0.00 | 0.41 | 0.00 | 94 | 1010.6 |
| 20260505002732 | 10 | 251 | 0.0 | 0.0 | 0.00 | 0.41 | 0.00 | 94 | 1010.6 |
| 20260505002250 | 10 | 251 | 0.0 | 0.0 | 0.00 | 0.41 | 0.00 | 94 | 1010.8 |
| 20260505001735 | 10 | 251 | 0.0 | 0.0 | 0.00 | 0.41 | 0.00 | 94 | 1010.9 |
| 20260505001235 | 10 | 250 | 0.0 | 0.0 | 0.00 | 0.41 | 0.00 | 94 | 1010.9 |
| 20260505000733 | 10 | 251 | 0.0 | 0.0 | 0.00 | 0.41 | 0.00 | 94 | 1010.9 |
| 20260505000301 | 9 | 251 | 0.0 | 0.0 | 0.00 | 0.41 | 0.00 | 94 | 1010.9 |
| 20260504235727 | 9 | 251 | 0.0 | 0.0 | 0.00 | 0.41 | 0.00 | 94 | 1011.0 |
| 20260504235247 | 9 | 251 | 0.0 | 0.0 | 0.00 | 0.41 | 0.00 | 94 | 1011.0 |
| 20260504234726 | 9 | 251 | 0.0 | 0.0 | 0.00 | 0.41 | 0.00 | 94 | 1011.1 |
| 20260504234248 | 9 | 250 | 0.0 | 0.0 | 0.00 | 0.41 | 0.00 | 94 | 1011.2 |
| 20260504233734 | 9 | 251 | 0.0 | 0.0 | 0.00 | 0.41 | 0.00 | 94 | 1011.2 |
| 20260504233233 | 9 | 250 | 0.0 | 0.0 | 0.00 | 0.41 | 0.00 | 94 | 1011.3 |
| 20260504232739 | 9 | 251 | 0.0 | 0.0 | 0.00 | 0.41 | 0.00 | 94 | 1011.3 |
| 20260504232239 | 9 | 251 | 0.0 | 0.0 | 0.00 | 0.41 | 0.00 | 94 | 1011.2 |
| 20260504231745 | 9 | 251 | 0.0 | 0.0 | 0.00 | 0.41 | 0.00 | 94 | 1011.4 |
| 20260504231243 | 9 | 251 | 0.0 | 0.0 | 0.00 | 0.41 | 0.00 | 94 | 1011.4 |
| 20260504230721 | 9 | 251 | 0.0 | 0.0 | 0.00 | 0.41 | 0.00 | 94 | 1011.4 |
| 20260504230238 | 9 | 250 | 0.0 | 0.0 | 0.00 | 0.41 | 0.00 | 94 | 1011.3 |
| 20260504225724 | 9 | 251 | 0.0 | 0.0 | 0.00 | 0.41 | 0.00 | 94 | 1011.4 |
| 20260504225231 | 9 | 251 | 0.0 | 0.0 | 0.00 | 0.41 | 0.00 | 94 | 1011.6 |
| 20260504224730 | 8 | 251 | 0.0 | 0.0 | 0.00 | 0.41 | 0.00 | 94 | 1011.7 |
| 20260504224229 | 8 | 251 | 0.0 | 0.0 | 0.00 | 0.41 | 0.00 | 94 | 1011.6 |
| 20260504223736 | 8 | 251 | 0.0 | 0.0 | 0.00 | 0.41 | 0.00 | 94 | 1011.7 |
| 20260504223242 | 8 | 250 | 0.0 | 0.0 | 0.00 | 0.41 | 0.00 | 94 | 1011.9 |
| 20260504222721 | 8 | 250 | 0.0 | 0.0 | 0.00 | 0.41 | 0.00 | 94 | 1011.9 |
| 20260504222239 | 8 | 250 | 0.0 | 0.0 | 0.00 | 0.41 | 0.00 | 94 | 1011.7 |
| 20260504221746 | 8 | 250 | 0.0 | 0.0 | 0.00 | 0.41 | 0.00 | 93 | 1011.9 |
| 20260504221224 | 8 | 250 | 0.0 | 0.0 | 0.00 | 0.41 | 0.00 | 93 | 1011.7 |
| 20260504220724 | 8 | 250 | 0.0 | 0.0 | 0.00 | 0.41 | 0.00 | 93 | 1011.9 |
| 20260504220241 | 8 | 250 | 0.0 | 0.0 | 0.00 | 0.41 | 0.08 | 93 | 1011.9 |
| 20260504215727 | 8 | 251 | 0.0 | 0.0 | 0.00 | 0.41 | 0.08 | 93 | 1011.9 |
| 20260504215234 | 8 | 250 | 0.0 | 0.0 | 0.00 | 0.41 | 0.08 | 93 | 1011.9 |
| 20260504214733 | 8 | 251 | 0.0 | 0.0 | 0.00 | 0.41 | 0.08 | 93 | 1011.9 |
| 20260504214232 | 8 | 250 | 0.0 | 0.0 | 0.00 | 0.41 | 0.08 | 92 | 1012.0 |
| 20260504213738 | 8 | 251 | 0.0 | 0.0 | 0.00 | 0.41 | 0.08 | 92 | 1012.1 |
| 20260504213238 | 9 | 251 | 0.0 | 0.0 | 0.00 | 0.41 | 0.08 | 92 | 1012.0 |
| 20260504212737 | 9 | 251 | 0.0 | 0.0 | 0.00 | 0.41 | 0.08 | 92 | 1012.1 |
| 20260504212222 | 9 | 251 | 0.0 | 0.0 | 0.00 | 0.41 | 0.08 | 92 | 1012.1 |
| 20260504211740 | 9 | 251 | 0.0 | 0.0 | 0.00 | 0.41 | 0.08 | 92 | 1012.2 |
| 20260504211247 | 9 | 251 | 0.0 | 0.0 | 0.00 | 0.41 | 0.08 | 92 | 1012.1 |
| 20260504210726 | 9 | 251 | 0.0 | 0.0 | 0.00 | 0.41 | 0.08 | 92 | 1012.2 |
| 20260504210301 | 10 | 250 | 0.0 | 0.0 | 0.00 | 0.41 | 0.08 | 91 | 1012.2 |
| 20260504205726 | 10 | 250 | 0.0 | 0.0 | 0.00 | 0.41 | 0.08 | 91 | 1012.1 |
| 20260504205226 | 10 | 251 | 0.0 | 0.0 | 0.00 | 0.41 | 0.08 | 91 | 1012.1 |
| 20260504204732 | 10 | 251 | 0.0 | 0.0 | 0.00 | 0.41 | 0.08 | 91 | 1012.2 |
| 20260504204231 | 10 | 250 | 0.0 | 0.0 | 0.00 | 0.41 | 0.08 | 90 | 1012.2 |
| 20260504203730 | 10 | 251 | 0.0 | 0.0 | 0.00 | 0.41 | 0.08 | 91 | 1012.4 |
| 20260504203237 | 10 | 251 | 0.0 | 0.0 | 0.00 | 0.41 | 0.08 | 91 | 1012.4 |
| 20260504202736 | 10 | 251 | 0.0 | 0.0 | 0.00 | 0.41 | 0.08 | 91 | 1012.5 |
| 20260504202235 | 10 | 251 | 0.0 | 0.0 | 0.00 | 0.41 | 0.08 | 90 | 1012.5 |
| 20260504201741 | 10 | 251 | 0.0 | 0.0 | 0.00 | 0.41 | 0.08 | 90 | 1012.5 |
| 20260504201306 | 11 | 250 | 0.0 | 0.0 | 0.00 | 0.41 | 0.08 | 90 | 1012.6 |
| 20260504200724 | 11 | 251 | 0.0 | 0.0 | 0.00 | 0.41 | 0.08 | 90 | 1012.6 |
| 20260504200254 | 11 | 251 | 0.0 | 0.0 | 0.00 | 0.41 | 0.08 | 90 | 1012.6 |
| 20260504195746 | 11 | 250 | 0.0 | 0.0 | 0.00 | 0.41 | 0.08 | 89 | 1012.6 |
| 20260504195246 | 11 | 251 | 0.0 | 0.0 | 0.00 | 0.41 | 0.08 | 89 | 1012.6 |
| 20260504194752 | 11 | 219 | 0.0 | 0.0 | 0.00 | 0.41 | 0.08 | 89 | 1012.5 |
| 20260504194231 | 11 | 218 | 0.0 | 0.0 | 0.00 | 0.41 | 0.08 | 88 | 1012.5 |
| 20260504193737 | 11 | 219 | 0.0 | 0.0 | 0.00 | 0.41 | 0.08 | 87 | 1012.5 |
| 20260504193236 | 11 | 293 | 0.0 | 0.0 | 0.00 | 0.41 | 0.08 | 87 | 1012.5 |
| 20260504192721 | 11 | 293 | 0.0 | 0.0 | 0.00 | 0.41 | 0.08 | 87 | 1012.4 |
| 20260504192240 | 11 | 293 | 0.0 | 0.0 | 0.00 | 0.41 | 0.08 | 86 | 1012.5 |
| 20260504191747 | 11 | 252 | 0.0 | 0.0 | 0.00 | 0.41 | 0.08 | 86 | 1012.5 |
| 20260504191224 | 12 | 252 | 0.0 | 0.0 | 0.00 | 0.41 | 0.08 | 86 | 1012.5 |
| 20260504190723 | 12 | 252 | 0.0 | 0.0 | 0.00 | 0.41 | 0.08 | 87 | 1012.6 |
| 20260504190241 | 12 | 285 | 0.0 | 0.0 | 0.00 | 0.41 | 0.08 | 88 | 1012.7 |
| 20260504185727 | 12 | 231 | 0.0 | 0.0 | 0.00 | 0.41 | 0.08 | 88 | 1012.5 |
| 20260504185231 | 12 | 231 | 0.0 | 0.0 | 0.00 | 0.41 | 0.08 | 88 | 1012.6 |
| 20260504184729 | 12 | 231 | 0.0 | 0.0 | 0.00 | 0.41 | 0.08 | 88 | 1012.5 |
| 20260504184256 | 12 | 231 | 0.0 | 0.0 | 0.00 | 0.41 | 0.08 | 88 | 1012.6 |
| 20260504183734 | 12 | 231 | 0.0 | 0.0 | 0.00 | 0.41 | 0.08 | 88 | 1012.6 |
| 20260504183241 | 12 | 231 | 0.0 | 0.0 | 0.00 | 0.41 | 0.08 | 88 | 1012.6 |
| 20260504182741 | 12 | 231 | 0.0 | 0.0 | 0.00 | 0.41 | 0.08 | 89 | 1012.5 |
| 20260504182246 | 12 | 231 | 0.0 | 1.6 | 0.00 | 0.41 | 0.08 | 89 | 1012.5 |
| 20260504181725 | 12 | 226 | 0.0 | 1.6 | 0.00 | 0.41 | 0.08 | 88 | 1012.5 |